Lionhead Wind

Lionhead weather stationLocated on Lionhead Ridge near West Yellowstone. Use the nearest SNOTEL station for snow depth data: Madison Plateau. The data on this page is also available to view at dataGarrison.com.

Elevation
9420ft
Jump to table bottom
Date Time Temperature
deg F
RH, % Wind Speed Wind Gust Wind Direction Pressure Light
03/01/24 03:00 20.6 97 64 111 W - 256 700.920 0
03/01/24 02:00 21.1 97 64 108 W - 257 699.740 0
03/01/24 01:00 22.3 97 64 102 W - 253 701.400 0
03/01/24 00:00 22.4 97 51 99 W - 256 698.080 0
02/29/24 23:00 22.4 97 33 78 SW - 246 702.800 0
02/29/24 22:00 22.4 97 27 57 SW - 243 703.500 0
02/29/24 21:00 21.1 97 25 53 W - 257 704.180 0
02/29/24 20:00 20.5 96 34 61 W - 248 704.740 0
02/29/24 19:00 19.9 96 36 54 SW - 240 705.240 0
02/29/24 18:00 19.8 96 38 54 SW - 239 704.920 0
02/29/24 17:00 20.0 96 44 64 SW - 236 705.180 0
02/29/24 16:00 19.9 96 49 68 SW - 234 705.200 0
02/29/24 15:00 20.0 96 44 63 SW - 239 705.960 0
02/29/24 14:00 19.2 96 39 55 SW - 247 706.660 0
02/29/24 13:00 18.6 96 31 57 W - 260 707.060 0
02/29/24 12:00 18.5 96 30 44 W - 250 708.600 0
02/29/24 11:00 19.9 96 23 39 W - 257 709.160 0
02/29/24 10:00 18.3 95 27 36 W - 257 709.900 0
02/29/24 09:00 19.2 95 29 41 SW - 244 709.460 0
02/29/24 08:00 19.1 95 33 45 SW - 246 709.540 0
02/29/24 07:00 15.1 95 32 48 SW - 247 709.020 0
02/29/24 06:00 13.4 94 31 45 SW - 244 709.480 0
02/29/24 05:00 13.2 94 27 40 W - 248 709.980 0
02/29/24 04:00 13.2 94 24 36 W - 251 710.700 0
02/29/24 03:00 13.2 94 26 37 W - 251 710.760 0
02/29/24 02:00 12.9 94 24 36 W - 256 711.200 0
02/29/24 01:00 13.0 94 25 36 W - 251 712.220 0
02/29/24 00:00 12.6 94 20 30 SW - 246 712.240 0
02/28/24 23:00 12.2 94 23 34 W - 258 712.660 0
02/28/24 22:00 12.0 94 24 36 SW - 246 712.660 0
02/28/24 21:00 12.1 94 24 34 W - 253 712.920 0
02/28/24 20:00 12.0 94 21 33 W - 251 712.420 0
02/28/24 19:00 12.1 94 20 29 W - 248 712.860 0
02/28/24 18:00 11.6 94 20 29 W - 250 712.740 0
02/28/24 17:00 11.8 94 17 29 W - 256 712.860 0
02/28/24 16:00 13.3 94 12 25 W - 272 713.200 0
02/28/24 15:00 13.3 94 13 27 W - 279 712.920 0
02/28/24 14:00 13.9 94 18 29 W - 260 713.220 0
02/28/24 13:00 11.7 94 20 30 SW - 243 713.000 0
02/28/24 12:00 11.1 94 25 34 W - 254 713.300 0
02/28/24 11:00 11.1 93 27 38 W - 261 713.160 0
02/28/24 10:00 9.4 93 27 37 W - 261 713.160 0
02/28/24 09:00 7.0 93 27 41 W - 254 712.440 0
02/28/24 08:00 5.5 92 23 32 W - 250 712.520 0
02/28/24 07:00 3.6 92 17 26 W - 257 712.880 0
02/28/24 06:00 2.5 92 17 26 SW - 240 712.540 0
02/28/24 05:00 2.5 92 24 35 SW - 244 711.760 0
02/28/24 04:00 2.3 92 23 31 SW - 244 711.400 0
02/28/24 03:00 1.3 91 22 29 SW - 237 711.080 0
02/28/24 02:00 0.5 91 24 37 SW - 243 711.200 0